• In Germany
  • List of Countries
  • For 7 days
  • Water Temperature
  • Satellite Maps
  • Weather Map
  • Weather Widgets
  • user-avatar
    Login

    Hourly Weather Kętrzyn

    Today, 23 October, Monday

    Time Temperature Precipitation Wind Pressure Humidity
    00:00 +5°C° 0.3 mm 4 mps 751 mmHg 90%
    01:00 +5°C° 0.3 mm 4 mps 751 mmHg 90%
    02:00 +5°C° 0.4 mm 3 mps 751 mmHg 91%
    03:00 +5°C° 0.4 mm 3 mps 751 mmHg 91%
    04:00 +5°C° 0.4 mm 3 mps 751 mmHg 92%
    05:00 +5°C° 0.3 mm 3 mps 751 mmHg 92%
    06:00 +5°C° 0.3 mm 3 mps 751 mmHg 92%
    07:00 +5°C° 0.3 mm 3 mps 751 mmHg 92%
    08:00 +5°C° 0.3 mm 3 mps 751 mmHg 91%
    09:00 +5°C° 0.3 mm 3 mps 752 mmHg 90%
    10:00 +5°C° 0.3 mm 3 mps 752 mmHg 90%
    11:00 +5°C° 0.2 mm 3 mps 752 mmHg 89%
    12:00 +5°C° 0.2 mm 3 mps 752 mmHg 87%
    13:00 +5°C° 0.2 mm 3 mps 753 mmHg 86%
    14:00 +5°C° 0.2 mm 3 mps 753 mmHg 86%
    15:00 +5°C° 0.2 mm 3 mps 753 mmHg 86%
    16:00 +5°C° 0.2 mm 3 mps 754 mmHg 86%
    17:00 +5°C° 0.1 mm 3 mps 754 mmHg 85%
    18:00 +5°C° 0.1 mm 3 mps 755 mmHg 84%
    19:00 +5°C° 0.1 mm 3 mps 755 mmHg 84%
    20:00 +4°C° 0 mm 3 mps 756 mmHg 83%
    21:00 +4°C° 0 mm 3 mps 756 mmHg 82%
    22:00 +4°C° 0 mm 3 mps 757 mmHg 82%
    23:00 +3°C° 0 mm 3 mps 757 mmHg 83%

    Tomorrow, 24 October, Tuesday

    Time Temperature Precipitation Wind Pressure Humidity
    00:00 +3°C° 0 mm 3 mps 758 mmHg 84%
    01:00 +2°C° 0 mm 3 mps 758 mmHg 85%
    02:00 +2°C° 0 mm 3 mps 759 mmHg 86%
    03:00 +1°C° 0 mm 3 mps 759 mmHg 86%
    04:00 +2°C° 0 mm 2 mps 759 mmHg 87%
    05:00 +1°C° 0 mm 3 mps 760 mmHg 88%
    06:00 0°C° 0 mm 3 mps 760 mmHg 88%
    07:00 0°C° 0 mm 3 mps 761 mmHg 88%
    08:00 +1°C° 0 mm 3 mps 761 mmHg 83%
    09:00 +3°C° 0 mm 3 mps 761 mmHg 78%
    10:00 +4°C° 0 mm 3 mps 761 mmHg 73%
    11:00 +5°C° 0 mm 3 mps 761 mmHg 70%
    12:00 +5°C° 0 mm 3 mps 761 mmHg 67%
    13:00 +7°C° 0 mm 3 mps 761 mmHg 64%
    14:00 +7°C° 0 mm 3 mps 761 mmHg 67%
    15:00 +6°C° 0 mm 2 mps 761 mmHg 71%
    16:00 +5°C° 0 mm 2 mps 761 mmHg 74%
    17:00 +5°C° 0 mm 2 mps 762 mmHg 76%
    18:00 +4°C° 0 mm 2 mps 762 mmHg 78%
    19:00 +3°C° 0 mm 3 mps 762 mmHg 80%
    20:00 +3°C° 0 mm 3 mps 762 mmHg 78%
    21:00 +3°C° 0 mm 3 mps 762 mmHg 77%
    22:00 +3°C° 0 mm 3 mps 762 mmHg 76%
    23:00 +3°C° 0 mm 3 mps 762 mmHg 77%

    Day after tomorrow, 25 October, Wednesday

    Time Temperature Precipitation Wind Pressure Humidity
    00:00 +3°C° 0 mm 3 mps 762 mmHg 77%
    01:00 +3°C° 0 mm 3 mps 762 mmHg 77%
    02:00 +2°C° 0 mm 3 mps 762 mmHg 78%
    03:00 +1°C° 0 mm 4 mps 762 mmHg 80%
    04:00 +1°C° 0 mm 4 mps 761 mmHg 81%
    05:00 +1°C° 0 mm 4 mps 761 mmHg 81%
    06:00 +1°C° 0 mm 5 mps 761 mmHg 81%
    07:00 +1°C° 0 mm 5 mps 761 mmHg 81%
    08:00 +2°C° 0.4 mm 6 mps 760 mmHg 80%
    09:00 +3°C° 0.4 mm 6 mps 760 mmHg 78%
    10:00 +3°C° 0.4 mm 7 mps 760 mmHg 77%
    11:00 +3°C° 0.9 mm 7 mps 759 mmHg 78%
    12:00 +3°C° 0.9 mm 7 mps 759 mmHg 79%
    13:00 +2°C° 0.9 mm 8 mps 758 mmHg 80%
    14:00 +2°C° 0.5 mm 8 mps 758 mmHg 82%
    15:00 +2°C° 0.5 mm 8 mps 757 mmHg 84%
    16:00 +4°C° 0.5 mm 8 mps 756 mmHg 86%
    17:00 +4°C° 0.4 mm 7 mps 756 mmHg 87%
    18:00 +5°C° 0.4 mm 7 mps 755 mmHg 89%
    19:00 +5°C° 0.4 mm 7 mps 755 mmHg 90%
    20:00 +7°C° 0.6 mm 6 mps 755 mmHg 91%
    21:00 +8°C° 0.6 mm 5 mps 755 mmHg 93%
    22:00 +10°C° 0.6 mm 4 mps 755 mmHg 95%
    23:00 +10°C° 0 mm 4 mps 755 mmHg 95%

    26 October, Thursday

    Time Temperature Precipitation Wind Pressure Humidity
    00:00 +8°C° 0 mm 4 mps 755 mmHg 95%
    01:00 +9°C° 0 mm 3 mps 755 mmHg 95%
    02:00 +9°C° 0 mm 3 mps 755 mmHg 96%
    03:00 +9°C° 0 mm 3 mps 755 mmHg 96%
    04:00 +8°C° 0 mm 3 mps 755 mmHg 96%
    05:00 +8°C° 0 mm 4 mps 755 mmHg 96%
    06:00 +8°C° 0 mm 4 mps 755 mmHg 96%
    07:00 +8°C° 0 mm 4 mps 755 mmHg 96%
    08:00 +8°C° 0 mm 4 mps 755 mmHg 93%
    09:00 +9°C° 0 mm 5 mps 755 mmHg 90%
    10:00 +10°C° 0 mm 5 mps 754 mmHg 87%
    11:00 +10°C° 0.1 mm 5 mps 754 mmHg 85%
    12:00 +10°C° 0.1 mm 5 mps 754 mmHg 84%
    13:00 +11°C° 0.1 mm 6 mps 754 mmHg 82%
    14:00 +10°C° 0.1 mm 5 mps 753 mmHg 83%
    15:00 +10°C° 0.1 mm 5 mps 753 mmHg 84%
    16:00 +10°C° 0.1 mm 4 mps 752 mmHg 86%
    17:00 +10°C° 0.1 mm 4 mps 752 mmHg 87%
    18:00 +10°C° 0.1 mm 4 mps 752 mmHg 89%
    19:00 +8°C° 0.1 mm 4 mps 752 mmHg 91%
    20:00 +8°C° 0 mm 4 mps 752 mmHg 92%
    21:00 +8°C° 0 mm 4 mps 751 mmHg 93%
    22:00 +8°C° 0 mm 4 mps 751 mmHg 93%
    23:00 +8°C° 0 mm 4 mps 751 mmHg 94%

    27 October, Friday

    Time Temperature Precipitation Wind Pressure Humidity
    00:00 +8°C° 0 mm 4 mps 750 mmHg 94%
    01:00 +8°C° 0 mm 4 mps 750 mmHg 94%
    02:00 +8°C° 0 mm 4 mps 749 mmHg 94%
    03:00 +8°C° 0 mm 4 mps 749 mmHg 94%
    04:00 +8°C° 0 mm 4 mps 748 mmHg 93%
    05:00 +8°C° 0 mm 4 mps 748 mmHg 93%
    06:00 +8°C° 0 mm 4 mps 747 mmHg 92%
    07:00 +8°C° 0 mm 4 mps 747 mmHg 91%
    08:00 +8°C° 0.2 mm 5 mps 746 mmHg 87%
    09:00 +9°C° 0.2 mm 5 mps 746 mmHg 83%
    10:00 +9°C° 0.2 mm 6 mps 746 mmHg 79%
    11:00 +9°C° 0.4 mm 6 mps 745 mmHg 79%
    12:00 +9°C° 0.4 mm 6 mps 745 mmHg 78%
    13:00 +9°C° 0.4 mm 6 mps 744 mmHg 78%
    14:00 +9°C° 0.3 mm 5 mps 743 mmHg 80%
    15:00 +9°C° 0.3 mm 5 mps 743 mmHg 82%
    16:00 +9°C° 0.3 mm 5 mps 742 mmHg 84%
    17:00 +8°C° 0.1 mm 4 mps 742 mmHg 86%
    18:00 +8°C° 0.1 mm 4 mps 742 mmHg 88%
    19:00 +7°C° 0.1 mm 4 mps 742 mmHg 90%
    20:00 +8°C° 0.1 mm 4 mps 742 mmHg 90%
    21:00 +8°C° 0.1 mm 5 mps 742 mmHg 90%
    22:00 +8°C° 0.1 mm 5 mps 742 mmHg 89%
    23:00 +7°C° 0.1 mm 4 mps 742 mmHg 90%

    28 October, Saturday

    Time Temperature Precipitation Wind Pressure Humidity
    00:00 +7°C° 0.1 mm 4 mps 741 mmHg 90%
    01:00 +6°C° 0.1 mm 4 mps 741 mmHg 90%
    02:00 +6°C° 0 mm 4 mps 741 mmHg 91%
    03:00 +6°C° 0 mm 4 mps 741 mmHg 92%
    04:00 +6°C° 0 mm 4 mps 740 mmHg 92%
    05:00 +7°C° 0.1 mm 3 mps 740 mmHg 92%
    06:00 +7°C° 0.1 mm 3 mps 740 mmHg 92%
    07:00 +5°C° 0.1 mm 3 mps 740 mmHg 92%
    08:00 +6°C° 0.2 mm 4 mps 740 mmHg 89%
    09:00 +6°C° 0.2 mm 4 mps 740 mmHg 86%
    10:00 +7°C° 0.2 mm 4 mps 740 mmHg 84%
    11:00 +7°C° 0.3 mm 4 mps 740 mmHg 84%
    12:00 +7°C° 0.3 mm 4 mps 739 mmHg 84%
    13:00 +8°C° 0.3 mm 4 mps 739 mmHg 83%
    14:00 +8°C° 0.1 mm 3 mps 740 mmHg 85%
    15:00 +8°C° 0.1 mm 3 mps 740 mmHg 87%
    16:00 +8°C° 0.1 mm 2 mps 740 mmHg 88%
    17:00 +7°C° 0.1 mm 2 mps 741 mmHg 90%
    18:00 +7°C° 0.1 mm 2 mps 741 mmHg 92%
    19:00 +7°C° 0.1 mm 2 mps 742 mmHg 93%
    20:00 +6°C° 0 mm 2 mps 742 mmHg 94%
    21:00 +6°C° 0 mm 2 mps 743 mmHg 95%
    22:00 +5°C° 0 mm 2 mps 743 mmHg 96%
    23:00 +5°C° 0 mm 2 mps 744 mmHg 96%

    29 October, Sunday

    Time Temperature Precipitation Wind Pressure Humidity
    00:00 +5°C° 0 mm 2 mps 744 mmHg 96%
    01:00 +5°C° 0 mm 2 mps 745 mmHg 96%
    02:00 +5°C° 0 mm 2 mps 745 mmHg 96%
    03:00 +5°C° 0 mm 2 mps 745 mmHg 95%
    04:00 +5°C° 0 mm 2 mps 746 mmHg 95%
    05:00 +4°C° 0 mm 2 mps 746 mmHg 95%
    06:00 +4°C° 0 mm 2 mps 746 mmHg 95%
    07:00 +4°C° 0 mm 2 mps 747 mmHg 95%
    08:00 +5°C° 0 mm 3 mps 747 mmHg 91%
    09:00 +7°C° 0 mm 3 mps 747 mmHg 87%
    10:00 +7°C° 0 mm 4 mps 747 mmHg 83%
    11:00 +8°C° 0 mm 4 mps 746 mmHg 81%
    12:00 +8°C° 0 mm 5 mps 746 mmHg 79%
    13:00 +8°C° 0 mm 5 mps 746 mmHg 78%
    14:00 +8°C° 0 mm 5 mps 745 mmHg 79%
    15:00 +7°C° 0 mm 5 mps 744 mmHg 80%
    16:00 +7°C° 0 mm 5 mps 744 mmHg 82%
    17:00 +7°C° 0.1 mm 6 mps 743 mmHg 83%
    18:00 +7°C° 0.1 mm 6 mps 742 mmHg 84%
    19:00 +6°C° 0.1 mm 7 mps 742 mmHg 86%
    20:00 +6°C° 0.1 mm 7 mps 741 mmHg 85%
    21:00 +7°C° 0.1 mm 6 mps 740 mmHg 85%
    22:00 +8°C° 0.1 mm 6 mps 740 mmHg 84%
    23:00 +8°C° 0.1 mm 7 mps 739 mmHg 83%
    Show more